Time,TemperatureF,DewpointF,PressureIn,WindDirection,WindDirectionDegrees,WindSpeedMPH,WindSpeedGustMPH,Humidity,HourlyPrecipIn,Conditions,Clouds,dailyrainin,SolarRadiationWatts/m^2,SoftwareType,DateUTC
2013-06-04 00:02:00,54.0,28.0,-100.00,WSW,241,3.0,5.0,36,0.00,,,0.00,0.000000,,2013-06-04 06:02:00,
2013-06-04 00:12:00,54.0,28.0,-100.00,WSW,241,3.0,5.0,36,0.00,,,0.00,0.000000,,2013-06-04 06:12:00,
2013-06-04 00:22:00,54.0,28.0,-100.00,WSW,241,3.0,5.0,36,0.00,,,0.00,0.000000,,2013-06-04 06:22:00,
2013-06-04 00:42:00,56.0,27.0,-100.00,WNW,284,3.0,7.0,32,0.00,,,0.00,0.000000,,2013-06-04 06:42:00,
2013-06-04 00:52:00,56.0,27.0,-100.00,WNW,284,3.0,7.0,32,0.00,,,0.00,0.000000,,2013-06-04 06:52:00,
2013-06-04 01:02:00,56.0,27.0,-100.00,WNW,284,3.0,7.0,32,0.00,,,0.00,0.000000,,2013-06-04 07:02:00,
2013-06-04 01:12:00,56.0,27.0,-100.00,WNW,284,3.0,7.0,32,0.00,,,0.00,0.000000,,2013-06-04 07:12:00,
2013-06-04 01:22:00,56.0,27.0,-100.00,WNW,284,3.0,7.0,32,0.00,,,0.00,0.000000,,2013-06-04 07:22:00,
2013-06-04 01:42:00,49.0,26.0,-100.00,WNW,300,2.0,6.0,41,0.00,,,0.00,0.000000,,2013-06-04 07:42:00,
2013-06-04 01:52:00,49.0,26.0,-100.00,WNW,300,2.0,6.0,41,0.00,,,0.00,0.000000,,2013-06-04 07:52:00,
2013-06-04 02:02:00,49.0,26.0,-100.00,WNW,300,2.0,6.0,41,0.00,,,0.00,0.000000,,2013-06-04 08:02:00,
2013-06-04 02:12:00,49.0,26.0,-100.00,WNW,300,2.0,6.0,41,0.00,,,0.00,0.000000,,2013-06-04 08:12:00,
2013-06-04 02:22:00,49.0,26.0,-100.00,WNW,300,2.0,6.0,41,0.00,,,0.00,0.000000,,2013-06-04 08:22:00,
2013-06-04 02:42:00,47.0,27.0,-100.00,WNW,292,2.0,3.0,45,0.00,,,0.00,0.000000,,2013-06-04 08:42:00,
2013-06-04 02:52:00,47.0,27.0,-100.00,WNW,292,2.0,3.0,45,0.00,,,0.00,0.000000,,2013-06-04 08:52:00,
2013-06-04 03:02:00,47.0,27.0,-100.00,WNW,292,2.0,3.0,45,0.00,,,0.00,0.000000,,2013-06-04 09:02:00,
2013-06-04 03:12:00,47.0,27.0,-100.00,WNW,292,2.0,3.0,45,0.00,,,0.00,0.000000,,2013-06-04 09:12:00,
2013-06-04 03:22:00,47.0,27.0,-100.00,WNW,292,2.0,3.0,45,0.00,,,0.00,0.000000,,2013-06-04 09:22:00,
2013-06-04 03:43:00,46.0,27.0,-100.00,West,260,2.0,4.0,47,0.00,,,0.00,0.000000,,2013-06-04 09:43:00,
2013-06-04 03:53:00,46.0,27.0,-100.00,West,260,2.0,4.0,47,0.00,,,0.00,0.000000,,2013-06-04 09:53:00,
2013-06-04 04:02:00,46.0,27.0,-100.00,West,260,2.0,4.0,47,0.00,,,0.00,0.000000,,2013-06-04 10:02:00,
2013-06-04 04:12:00,46.0,27.0,-100.00,West,260,2.0,4.0,47,0.00,,,0.00,0.000000,,2013-06-04 10:12:00,
2013-06-04 04:22:00,46.0,27.0,-100.00,West,260,2.0,4.0,47,0.00,,,0.00,0.000000,,2013-06-04 10:22:00,
2013-06-04 04:42:00,52.0,25.0,-100.00,SW,218,3.0,5.0,34,0.00,,,0.00,0.000000,,2013-06-04 10:42:00,
2013-06-04 04:53:00,52.0,25.0,-100.00,SW,218,3.0,5.0,34,0.00,,,0.00,0.000000,,2013-06-04 10:53:00,
2013-06-04 05:02:00,52.0,25.0,-100.00,SW,218,3.0,5.0,34,0.00,,,0.00,0.000000,,2013-06-04 11:02:00,
2013-06-04 05:12:00,52.0,25.0,-100.00,SW,218,3.0,5.0,34,0.00,,,0.00,0.000000,,2013-06-04 11:12:00,
2013-06-04 05:22:00,52.0,25.0,-100.00,SW,218,3.0,5.0,34,0.00,,,0.00,0.000000,,2013-06-04 11:22:00,
2013-06-04 05:43:00,45.0,25.0,-100.00,WNW,289,2.0,4.0,45,0.00,,,0.00,0.000000,,2013-06-04 11:43:00,
2013-06-04 05:52:00,45.0,25.0,-100.00,WNW,289,2.0,4.0,45,0.00,,,0.00,0.000000,,2013-06-04 11:52:00,
2013-06-04 06:02:00,45.0,25.0,-100.00,WNW,289,2.0,4.0,45,0.00,,,0.00,0.000000,,2013-06-04 12:02:00,
2013-06-04 06:12:00,45.0,25.0,-100.00,WNW,289,2.0,4.0,45,0.00,,,0.00,0.000000,,2013-06-04 12:12:00,
2013-06-04 06:22:00,45.0,25.0,-100.00,WNW,289,2.0,4.0,45,0.00,,,0.00,0.000000,,2013-06-04 12:22:00,
2013-06-04 06:42:00,48.0,28.0,-100.00,WSW,237,1.0,3.0,46,0.00,,,0.00,45.000000,,2013-06-04 12:42:00,
2013-06-04 06:53:00,48.0,28.0,-100.00,WSW,237,1.0,3.0,46,0.00,,,0.00,45.000000,,2013-06-04 12:53:00,
2013-06-04 07:02:00,48.0,28.0,-100.00,WSW,237,1.0,3.0,46,0.00,,,0.00,45.000000,,2013-06-04 13:02:00,
2013-06-04 07:12:00,48.0,28.0,-100.00,WSW,237,1.0,3.0,46,0.00,,,0.00,45.000000,,2013-06-04 13:12:00,
2013-06-04 07:22:00,48.0,28.0,-100.00,WSW,237,1.0,3.0,46,0.00,,,0.00,45.000000,,2013-06-04 13:22:00,
2013-06-04 07:42:00,55.0,28.0,-100.00,SE,143,2.0,3.0,35,0.00,,,0.00,260.000000,,2013-06-04 13:42:00,
2013-06-04 07:52:00,55.0,28.0,-100.00,SE,143,2.0,3.0,35,0.00,,,0.00,260.000000,,2013-06-04 13:52:00,
2013-06-04 08:02:00,55.0,28.0,-100.00,SE,143,2.0,3.0,35,0.00,,,0.00,260.000000,,2013-06-04 14:02:00,
2013-06-04 08:12:00,55.0,28.0,-100.00,SE,143,2.0,3.0,35,0.00,,,0.00,260.000000,,2013-06-04 14:12:00,
2013-06-04 08:22:00,55.0,28.0,-100.00,SE,143,2.0,3.0,35,0.00,,,0.00,260.000000,,2013-06-04 14:22:00,
2013-06-04 08:43:00,59.0,30.0,-100.00,East,92,2.0,4.0,33,0.00,,,0.00,512.000000,,2013-06-04 14:43:00,
2013-06-04 08:52:00,59.0,30.0,-100.00,East,92,2.0,4.0,33,0.00,,,0.00,512.000000,,2013-06-04 14:52:00,
2013-06-04 09:02:00,59.0,30.0,-100.00,East,92,2.0,4.0,33,0.00,,,0.00,512.000000,,2013-06-04 15:02:00,
2013-06-04 09:12:00,59.0,30.0,-100.00,East,92,2.0,4.0,33,0.00,,,0.00,512.000000,,2013-06-04 15:12:00,
2013-06-04 09:22:00,59.0,30.0,-100.00,East,92,2.0,4.0,33,0.00,,,0.00,512.000000,,2013-06-04 15:22:00,
2013-06-04 09:42:00,64.0,31.0,-100.00,East,85,2.0,4.0,29,0.00,,,0.00,745.000000,,2013-06-04 15:42:00,
2013-06-04 09:53:00,64.0,31.0,-100.00,East,85,2.0,4.0,29,0.00,,,0.00,745.000000,,2013-06-04 15:53:00,
2013-06-04 10:03:00,64.0,31.0,-100.00,East,85,2.0,4.0,29,0.00,,,0.00,745.000000,,2013-06-04 16:03:00,
2013-06-04 10:12:00,64.0,31.0,-100.00,East,85,2.0,4.0,29,0.00,,,0.00,745.000000,,2013-06-04 16:12:00,
2013-06-04 10:22:00,64.0,31.0,-100.00,East,85,2.0,4.0,29,0.00,,,0.00,745.000000,,2013-06-04 16:22:00,
2013-06-04 10:23:00,70.0,25.0,-100.00,South,172,5.0,11.0,18,0.00,,,0.00,949.000000,,2013-06-04 16:23:00,
2013-06-04 10:42:00,70.0,25.0,-100.00,South,172,5.0,11.0,18,0.00,,,0.00,949.000000,,2013-06-04 16:42:00,
2013-06-04 10:53:00,70.0,25.0,-100.00,South,172,5.0,11.0,18,0.00,,,0.00,949.000000,,2013-06-04 16:53:00,
2013-06-04 11:03:00,70.0,25.0,-100.00,South,172,5.0,11.0,18,0.00,,,0.00,949.000000,,2013-06-04 17:03:00,
2013-06-04 11:12:00,70.0,25.0,-100.00,South,172,5.0,11.0,18,0.00,,,0.00,949.000000,,2013-06-04 17:12:00,
2013-06-04 11:42:00,72.0,25.0,-100.00,ESE,114,4.0,14.0,17,0.00,,,0.00,1154.000000,,2013-06-04 17:42:00,
2013-06-04 11:52:00,72.0,25.0,-100.00,ESE,114,4.0,14.0,17,0.00,,,0.00,1154.000000,,2013-06-04 17:52:00,
2013-06-04 12:02:00,72.0,25.0,-100.00,ESE,114,4.0,14.0,17,0.00,,,0.00,1154.000000,,2013-06-04 18:02:00,
2013-06-04 12:12:00,72.0,25.0,-100.00,ESE,114,4.0,14.0,17,0.00,,,0.00,1154.000000,,2013-06-04 18:12:00,
2013-06-04 12:22:00,72.0,25.0,-100.00,ESE,114,4.0,14.0,17,0.00,,,0.00,1154.000000,,2013-06-04 18:22:00,
2013-06-04 12:42:00,71.0,25.0,-100.00,WNW,287,5.0,12.0,18,0.00,,,0.00,1173.000000,,2013-06-04 18:42:00,
2013-06-04 12:53:00,71.0,25.0,-100.00,WNW,287,5.0,12.0,18,0.00,,,0.00,1173.000000,,2013-06-04 18:53:00,
2013-06-04 13:02:00,71.0,25.0,-100.00,WNW,287,5.0,12.0,18,0.00,,,0.00,1173.000000,,2013-06-04 19:02:00,
2013-06-04 13:12:00,71.0,25.0,-100.00,WNW,287,5.0,12.0,18,0.00,,,0.00,1173.000000,,2013-06-04 19:12:00,
2013-06-04 13:22:00,71.0,25.0,-100.00,WNW,287,5.0,12.0,18,0.00,,,0.00,1173.000000,,2013-06-04 19:22:00,
2013-06-04 13:42:00,72.0,27.0,-100.00,West,277,4.0,14.0,19,0.00,,,0.00,1087.000000,,2013-06-04 19:42:00,
2013-06-04 13:52:00,72.0,27.0,-100.00,West,277,4.0,14.0,19,0.00,,,0.00,1087.000000,,2013-06-04 19:52:00,
2013-06-04 14:03:00,72.0,27.0,-100.00,West,277,4.0,14.0,19,0.00,,,0.00,1087.000000,,2013-06-04 20:03:00,
2013-06-04 14:12:00,72.0,27.0,-100.00,West,277,4.0,14.0,19,0.00,,,0.00,1087.000000,,2013-06-04 20:12:00,
2013-06-04 14:22:00,72.0,27.0,-100.00,West,277,4.0,14.0,19,0.00,,,0.00,1087.000000,,2013-06-04 20:22:00,
2013-06-04 14:42:00,72.0,29.0,-100.00,SE,135,3.0,15.0,20,0.00,,,0.00,759.000000,,2013-06-04 20:42:00,
2013-06-04 14:53:00,72.0,29.0,-100.00,SE,135,3.0,15.0,20,0.00,,,0.00,759.000000,,2013-06-04 20:53:00,
2013-06-04 15:02:00,72.0,29.0,-100.00,SE,135,3.0,15.0,20,0.00,,,0.00,759.000000,,2013-06-04 21:02:00,
2013-06-04 15:12:00,72.0,29.0,-100.00,SE,135,3.0,15.0,20,0.00,,,0.00,759.000000,,2013-06-04 21:12:00,
2013-06-04 15:22:00,72.0,29.0,-100.00,SE,135,3.0,15.0,20,0.00,,,0.00,759.000000,,2013-06-04 21:22:00,
2013-06-04 15:42:00,75.0,27.0,-100.00,NE,52,3.0,12.0,17,0.00,,,0.00,1109.000000,,2013-06-04 21:42:00,
2013-06-04 15:53:00,75.0,27.0,-100.00,NE,52,3.0,12.0,17,0.00,,,0.00,1109.000000,,2013-06-04 21:53:00,
2013-06-04 16:02:00,75.0,27.0,-100.00,NE,52,3.0,12.0,17,0.00,,,0.00,1109.000000,,2013-06-04 22:02:00,
2013-06-04 16:12:00,75.0,27.0,-100.00,NE,52,3.0,12.0,17,0.00,,,0.00,1109.000000,,2013-06-04 22:12:00,
2013-06-04 16:22:00,75.0,27.0,-100.00,NE,52,3.0,12.0,17,0.00,,,0.00,1109.000000,,2013-06-04 22:22:00,
2013-06-04 16:42:00,68.0,25.0,-100.00,SSW,208,3.0,11.0,20,0.00,,,0.00,321.000000,,2013-06-04 22:42:00,
2013-06-04 16:52:00,68.0,25.0,-100.00,SSW,208,3.0,11.0,20,0.00,,,0.00,321.000000,,2013-06-04 22:52:00,
2013-06-04 17:02:00,68.0,25.0,-100.00,SSW,208,3.0,11.0,20,0.00,,,0.00,321.000000,,2013-06-04 23:02:00,
2013-06-04 17:12:00,68.0,25.0,-100.00,SSW,208,3.0,11.0,20,0.00,,,0.00,321.000000,,2013-06-04 23:12:00,
2013-06-04 17:22:00,68.0,25.0,-100.00,SSW,208,3.0,11.0,20,0.00,,,0.00,321.000000,,2013-06-04 23:22:00,
2013-06-04 17:42:00,65.0,30.0,-100.00,SSW,208,4.0,8.0,27,0.00,,,0.00,232.000000,,2013-06-04 23:42:00,
2013-06-04 17:52:00,65.0,30.0,-100.00,SSW,208,4.0,8.0,27,0.00,,,0.00,232.000000,,2013-06-04 23:52:00,
2013-06-04 18:02:00,65.0,30.0,-100.00,SSW,208,4.0,8.0,27,0.00,,,0.00,232.000000,,2013-06-05 00:02:00,
2013-06-04 18:12:00,65.0,30.0,-100.00,SSW,208,4.0,8.0,27,0.00,,,0.00,232.000000,,2013-06-05 00:12:00,
2013-06-04 18:22:00,65.0,30.0,-100.00,SSW,208,4.0,8.0,27,0.00,,,0.00,232.000000,,2013-06-05 00:22:00,
2013-06-04 18:42:00,61.0,30.0,-100.00,West,259,3.0,13.0,31,0.00,,,0.00,95.000000,,2013-06-05 00:42:00,
2013-06-04 18:52:00,61.0,30.0,-100.00,West,259,3.0,13.0,31,0.00,,,0.00,95.000000,,2013-06-05 00:52:00,
2013-06-04 19:02:00,61.0,30.0,-100.00,West,259,3.0,13.0,31,0.00,,,0.00,95.000000,,2013-06-05 01:02:00,
2013-06-04 19:12:00,61.0,30.0,-100.00,West,259,3.0,13.0,31,0.00,,,0.00,95.000000,,2013-06-05 01:12:00,
2013-06-04 19:22:00,61.0,30.0,-100.00,West,259,3.0,13.0,31,0.00,,,0.00,95.000000,,2013-06-05 01:22:00,
2013-06-04 19:42:00,61.0,31.0,-100.00,West,280,2.0,5.0,32,0.00,,,0.00,156.000000,,2013-06-05 01:42:00,
2013-06-04 19:52:00,61.0,31.0,-100.00,West,280,2.0,5.0,32,0.00,,,0.00,156.000000,,2013-06-05 01:52:00,
2013-06-04 20:02:00,61.0,31.0,-100.00,West,280,2.0,5.0,32,0.00,,,0.00,156.000000,,2013-06-05 02:02:00,
2013-06-04 20:12:00,61.0,31.0,-100.00,West,280,2.0,5.0,32,0.00,,,0.00,156.000000,,2013-06-05 02:12:00,
2013-06-04 20:22:00,61.0,31.0,-100.00,West,280,2.0,5.0,32,0.00,,,0.00,156.000000,,2013-06-05 02:22:00,
2013-06-04 20:42:00,54.0,31.0,-100.00,WNW,288,3.0,3.0,41,0.00,,,0.00,29.000000,,2013-06-05 02:42:00,
2013-06-04 20:52:00,54.0,31.0,-100.00,WNW,288,3.0,3.0,41,0.00,,,0.00,29.000000,,2013-06-05 02:52:00,
2013-06-04 21:02:00,54.0,31.0,-100.00,WNW,288,3.0,3.0,41,0.00,,,0.00,29.000000,,2013-06-05 03:02:00,
2013-06-04 21:12:00,54.0,31.0,-100.00,WNW,288,3.0,3.0,41,0.00,,,0.00,29.000000,,2013-06-05 03:12:00,
2013-06-04 21:22:00,54.0,31.0,-100.00,WNW,288,3.0,3.0,41,0.00,,,0.00,29.000000,,2013-06-05 03:22:00,
2013-06-04 21:43:00,51.0,29.0,-100.00,WNW,303,2.0,4.0,43,0.00,,,0.00,1.000000,,2013-06-05 03:43:00,
2013-06-04 21:53:00,51.0,29.0,-100.00,WNW,303,2.0,4.0,43,0.00,,,0.00,1.000000,,2013-06-05 03:53:00,
2013-06-04 22:02:00,51.0,29.0,-100.00,WNW,303,2.0,4.0,43,0.00,,,0.00,1.000000,,2013-06-05 04:02:00,
2013-06-04 22:13:00,51.0,29.0,-100.00,WNW,303,2.0,4.0,43,0.00,,,0.00,1.000000,,2013-06-05 04:13:00,
2013-06-04 22:22:00,51.0,29.0,-100.00,WNW,303,2.0,4.0,43,0.00,,,0.00,1.000000,,2013-06-05 04:22:00,
2013-06-04 22:42:00,55.0,30.0,-100.00,NW,306,2.0,8.0,38,0.00,,,0.00,0.000000,,2013-06-05 04:42:00,
2013-06-04 22:53:00,55.0,30.0,-100.00,NW,306,2.0,8.0,38,0.00,,,0.00,0.000000,,2013-06-05 04:53:00,
2013-06-04 23:02:00,55.0,30.0,-100.00,NW,306,2.0,8.0,38,0.00,,,0.00,0.000000,,2013-06-05 05:02:00,
2013-06-04 23:12:00,55.0,30.0,-100.00,NW,306,2.0,8.0,38,0.00,,,0.00,0.000000,,2013-06-05 05:12:00,
2013-06-04 23:22:00,55.0,30.0,-100.00,NW,306,2.0,8.0,38,0.00,,,0.00,0.000000,,2013-06-05 05:22:00,
2013-06-04 23:42:00,53.0,31.0,-100.00,WNW,303,2.0,4.0,42,0.00,,,0.00,0.000000,,2013-06-05 05:42:00,
2013-06-04 23:52:00,53.0,31.0,-100.00,WNW,303,2.0,4.0,42,0.00,,,0.00,0.000000,,2013-06-05 05:52:00,